DAL1281 KEYW-KATL

Flight info

Callsign DAL1281
Flight time N/A
Altitude 34000
Route BUFTT1 JAYMC Q110 DAWWN BEORN HOBTT3
Aircraft A319/M-SDE3FGHIRWY/LB1

Departure

Time 2026-04-29 17:39
Airport Key West International Airport (KEYW)

Arrival

Time N/A
Airport Hartsfield Jackson Atlanta International Airport (KATL)
Time Latitude Longitude Altitude Speed Heading
2026-04-29 17:16 24.55441 -81.75576 13 ft 0 kts 180°
2026-04-29 17:31 24.55466 -81.75573 15 ft 4 kts 204°
2026-04-29 17:32 24.55484 -81.75556 12 ft 4 kts 248°
2026-04-29 17:32 24.55489 -81.75533 12 ft 1 kts 269°
2026-04-29 17:34 24.55489 -81.75535 12 ft 1 kts 269°
2026-04-29 17:35 24.55489 -81.75572 12 ft 7 kts 272°
2026-04-29 17:35 24.55530 -81.75600 13 ft 4 kts 288°
2026-04-29 17:35 24.55529 -81.75645 12 ft 8 kts 267°
2026-04-29 17:36 24.55527 -81.75711 12 ft 9 kts 268°
2026-04-29 17:36 24.55528 -81.75785 12 ft 11 kts 269°
2026-04-29 17:36 24.55527 -81.75879 12 ft 13 kts 269°
2026-04-29 17:36 24.55526 -81.75984 12 ft 14 kts 269°
2026-04-29 17:37 24.55525 -81.76097 12 ft 15 kts 269°
2026-04-29 17:37 24.55524 -81.76215 12 ft 16 kts 269°
2026-04-29 17:37 24.55523 -81.76339 12 ft 16 kts 269°
2026-04-29 17:37 24.55521 -81.76467 12 ft 17 kts 269°
2026-04-29 17:38 24.55520 -81.76599 12 ft 14 kts 269°
2026-04-29 17:38 24.55562 -81.76669 11 ft 13 kts 353°
2026-04-29 17:38 24.55606 -81.76642 11 ft 0 kts 87°
2026-04-29 17:39 24.55608 -81.76473 10 ft 61 kts 90°
2026-04-29 17:39 24.55618 -81.75730 18 ft 130 kts 89°
2026-04-29 17:39 24.55645 -81.74681 548 ft 138 kts 88°
2026-04-29 17:39 24.55935 -81.73678 1224 ft 144 kts 54°
2026-04-29 17:40 24.56789 -81.72990 1686 ft 167 kts 19°
2026-04-29 17:40 24.58015 -81.72835 2086 ft 192 kts
2026-04-29 17:40 24.59431 -81.72748 2441 ft 217 kts
2026-04-29 17:40 24.61027 -81.72642 2900 ft 242 kts
2026-04-29 17:41 24.62787 -81.72521 3504 ft 262 kts
2026-04-29 17:41 24.64625 -81.72393 4474 ft 267 kts
2026-04-29 17:41 24.66483 -81.72263 5505 ft 269 kts
2026-04-29 17:41 24.68357 -81.72130 6550 ft 270 kts
2026-04-29 17:42 24.70234 -81.71954 7484 ft 273 kts 10°
2026-04-29 17:42 24.72050 -81.71311 8360 ft 277 kts 26°
2026-04-29 17:42 24.73645 -81.70109 9234 ft 281 kts 43°
2026-04-29 17:42 24.75003 -81.68545 10084 ft 285 kts 46°
2026-04-29 17:43 24.76403 -81.66903 10468 ft 306 kts 46°
2026-04-29 17:43 24.77915 -81.65137 10691 ft 329 kts 46°
2026-04-29 17:43 24.79524 -81.63258 11118 ft 342 kts 46°
2026-04-29 17:43 24.81168 -81.61336 11804 ft 347 kts 45°
2026-04-29 17:44 24.82836 -81.59388 12515 ft 350 kts 45°
2026-04-29 17:44 24.84532 -81.57448 13242 ft 353 kts 44°
2026-04-29 17:44 24.86288 -81.55529 13957 ft 356 kts 42°
2026-04-29 17:44 24.88075 -81.53624 14587 ft 360 kts 42°
2026-04-29 17:45 24.89870 -81.51730 15199 ft 364 kts 42°
2026-04-29 17:45 24.91714 -81.49785 15800 ft 369 kts 42°
2026-04-29 17:45 24.93566 -81.47815 16392 ft 373 kts 43°
2026-04-29 17:45 24.95438 -81.45804 17000 ft 378 kts 43°
2026-04-29 17:46 24.97326 -81.43764 17608 ft 382 kts 43°
2026-04-29 17:46 24.99233 -81.41702 18211 ft 387 kts 43°
2026-04-29 17:46 25.01170 -81.39610 18754 ft 391 kts 43°
2026-04-29 17:46 25.03120 -81.37505 19294 ft 395 kts 43°
2026-04-29 17:47 25.05090 -81.35370 19842 ft 398 kts 43°
2026-04-29 17:47 25.07073 -81.33222 20403 ft 402 kts 42°
2026-04-29 17:47 25.09079 -81.31049 20948 ft 406 kts 42°
2026-04-29 17:47 25.11098 -81.28863 21465 ft 409 kts 41°
2026-04-29 17:48 25.13145 -81.26647 21996 ft 413 kts 41°
2026-04-29 17:48 25.15200 -81.24424 22509 ft 416 kts 41°
2026-04-29 17:48 25.17281 -81.22171 23018 ft 420 kts 41°
2026-04-29 17:48 25.19372 -81.19903 23517 ft 423 kts 41°
2026-04-29 17:49 25.21475 -81.17620 23939 ft 426 kts 41°
2026-04-29 17:49 25.23595 -81.15314 24339 ft 429 kts 41°
2026-04-29 17:49 25.25705 -81.13019 24726 ft 432 kts 41°
2026-04-29 17:49 25.27855 -81.10680 25109 ft 436 kts 41°
2026-04-29 17:50 25.30023 -81.08323 25476 ft 439 kts 41°
2026-04-29 17:50 25.32205 -81.05948 25851 ft 442 kts 41°
2026-04-29 17:50 25.34466 -81.03638 26204 ft 443 kts 35°
2026-04-29 17:50 25.37037 -81.01767 26565 ft 442 kts 25°
2026-04-29 17:51 25.39853 -81.00439 26911 ft 441 kts 15°
2026-04-29 17:51 25.42845 -80.99676 27253 ft 441 kts
2026-04-29 17:51 25.45910 -80.99440 27593 ft 442 kts 360°
2026-04-29 17:51 25.48989 -80.99311 27930 ft 445 kts 360°
2026-04-29 17:52 25.52098 -80.99182 28270 ft 448 kts 360°
2026-04-29 17:52 25.54171 -80.99094 28483 ft 450 kts 360°
2026-04-29 17:52 25.58377 -80.98915 28902 ft 454 kts 360°
2026-04-29 17:52 25.61545 -80.98780 29214 ft 457 kts 360°
2026-04-29 17:53 25.64731 -80.98644 29521 ft 460 kts 360°
2026-04-29 17:53 25.67944 -80.98506 29834 ft 463 kts 360°
2026-04-29 17:53 25.71163 -80.98367 30194 ft 463 kts 360°
2026-04-29 17:53 25.74376 -80.98227 30596 ft 462 kts 360°
2026-04-29 17:54 25.77583 -80.98088 30981 ft 461 kts 360°
2026-04-29 17:54 25.80784 -80.97949 31350 ft 460 kts 359°
2026-04-29 17:54 25.83983 -80.97811 31719 ft 460 kts 359°
2026-04-29 17:54 25.87182 -80.97671 32089 ft 460 kts 359°
2026-04-29 17:55 25.90380 -80.97530 32467 ft 460 kts 359°
2026-04-29 17:55 25.93531 -80.97392 32840 ft 459 kts 359°
2026-04-29 17:55 25.96727 -80.97255 33219 ft 459 kts 359°
2026-04-29 17:55 25.99955 -80.97118 33618 ft 459 kts 359°
2026-04-29 17:56 26.03103 -80.96983 33965 ft 459 kts 359°
2026-04-29 17:56 26.06293 -80.96845 34066 ft 459 kts 359°
2026-04-29 17:56 26.09490 -80.96707 34079 ft 460 kts 359°
2026-04-29 17:57 26.15878 -80.96431 34081 ft 460 kts 359°
2026-04-29 17:57 26.22277 -80.96145 34079 ft 460 kts 359°
2026-04-29 17:58 26.28668 -80.95872 34088 ft 459 kts 359°
2026-04-29 17:58 26.35052 -80.95603 34073 ft 459 kts 359°
2026-04-29 17:59 26.41333 -80.96354 34069 ft 452 kts 341°
2026-04-29 17:59 26.46958 -80.99289 34066 ft 445 kts 324°
2026-04-29 18:00 26.52137 -81.03101 34065 ft 446 kts 324°
2026-04-29 18:00 26.57332 -81.06894 34068 ft 446 kts 324°
2026-04-29 18:01 26.62528 -81.10689 34084 ft 446 kts 324°
2026-04-29 18:01 26.67678 -81.14474 34080 ft 446 kts 324°
2026-04-29 18:02 26.72856 -81.18287 34075 ft 445 kts 324°
2026-04-29 18:02 26.78029 -81.22096 34066 ft 445 kts 324°
2026-04-29 18:03 26.83207 -81.25900 34064 ft 445 kts 324°
2026-04-29 18:03 26.88387 -81.29717 34069 ft 445 kts 325°
2026-04-29 18:04 26.93549 -81.33532 34094 ft 443 kts 325°
2026-04-29 18:04 26.98689 -81.37328 34092 ft 443 kts 326°
2026-04-29 18:05 27.03946 -81.40930 34089 ft 442 kts 328°
2026-04-29 18:05 27.09279 -81.44372 34085 ft 442 kts 328°
2026-04-29 18:06 27.14560 -81.47815 34084 ft 441 kts 328°
2026-04-29 18:06 27.19844 -81.51328 34088 ft 441 kts 327°
2026-04-29 18:07 27.25119 -81.54875 34099 ft 441 kts 327°
2026-04-29 18:07 27.30398 -81.58423 34091 ft 442 kts 327°
2026-04-29 18:08 27.35683 -81.61960 34092 ft 442 kts 327°
2026-04-29 18:08 27.40980 -81.65499 34091 ft 442 kts 327°
2026-04-29 18:09 27.46217 -81.69007 34120 ft 439 kts 327°
2026-04-29 18:09 27.51454 -81.72518 34120 ft 436 kts 327°
2026-04-29 18:10 27.56654 -81.76007 34117 ft 434 kts 327°
2026-04-29 18:10 27.61836 -81.79497 34114 ft 433 kts 327°
2026-04-29 18:11 27.67000 -81.82978 34108 ft 432 kts 327°
2026-04-29 18:11 27.72152 -81.86451 34101 ft 431 kts 327°
2026-04-29 18:12 27.77301 -81.89929 34093 ft 431 kts 327°